����,���ϕ���(m/s),���ϕ���,�ő�u�ԕ���(m/s),�ő啗��������,�C��(��),���x(%),10���Ԉړ��ώZ�J��(mm),1���Ԉړ��ώZ�J��(mm),���J��(mm),�݌v�J��(mm)
2022-04-11T00:00:00+09:00,0.7,�쓌,1.3,���k��,14.9,63.4,0,0,0,0
2022-04-11T00:01:00+09:00,0.7,�쓌,1.5,��쐼,15,62.5,0,0,0,0
2022-04-11T00:02:00+09:00,0.7,��쓌,1.6,��쐼,14.7,63,0,0,0,0
2022-04-11T00:03:00+09:00,0.7,��쓌,1.6,��쐼,14.5,63.9,0,0,0,0
2022-04-11T00:04:00+09:00,0.7,��,1.6,��쐼,14.4,64,0,0,0,0
2022-04-11T00:05:00+09:00,0.7,��,1.6,��쐼,14.3,64.3,0,0,0,0
2022-04-11T00:06:00+09:00,0.8,��,1.6,��쐼,14.3,64.6,0,0,0,0
2022-04-11T00:07:00+09:00,0.8,��,1.9,��,14.2,64.8,0,0,0,0
2022-04-11T00:08:00+09:00,0.9,��,2,�쐼,14.1,65.3,0,0,0,0
2022-04-11T00:09:00+09:00,0.9,��,2,�쐼,14,65.9,0,0,0,0
2022-04-11T00:10:00+09:00,0.9,��,2,�쐼,14,66.2,0,0,0,0
2022-04-11T00:11:00+09:00,0.9,��,2,�쐼,14.1,66.3,0,0,0,0
2022-04-11T00:12:00+09:00,0.9,��,2,�쐼,13.9,66.4,0,0,0,0
2022-04-11T00:13:00+09:00,0.9,��,2,�쐼,13.9,66.7,0,0,0,0
2022-04-11T00:14:00+09:00,0.8,��,2,�쐼,14,66.9,0,0,0,0
2022-04-11T00:15:00+09:00,0.8,��,2,�쐼,14,66.9,0,0,0,0
2022-04-11T00:16:00+09:00,0.7,��,2,�쐼,14,66.9,0,0,0,0
2022-04-11T00:17:00+09:00,0.7,��,2,�쐼,14.1,67.1,0,0,0,0
2022-04-11T00:18:00+09:00,0.6,��쓌,1.7,��쓌,14.2,66.9,0,0,0,0
2022-04-11T00:19:00+09:00,0.5,��쓌,1.7,��쓌,14.2,66.7,0,0,0,0
2022-04-11T00:20:00+09:00,0.5,�쓌,1.7,��쓌,14.2,66.6,0,0,0,0
2022-04-11T00:21:00+09:00,0.5,���쓌,1.7,��쓌,14.2,66.4,0,0,0,0
2022-04-11T00:22:00+09:00,0.5,���쓌,1.4,��쓌,14.2,66.3,0,0,0,0
2022-04-11T00:23:00+09:00,0.5,��,1,���k��,14.1,66.3,0,0,0,0
2022-04-11T00:24:00+09:00,0.5,��,1.2,���k��,14.1,66.6,0,0,0,0
2022-04-11T00:25:00+09:00,0.6,���k��,1.2,���k��,14.1,66.8,0,0,0,0
2022-04-11T00:26:00+09:00,0.6,���k��,1.2,���k��,14.1,66.8,0,0,0,0
2022-04-11T00:27:00+09:00,0.6,���k��,1.2,���k��,14,66.9,0,0,0,0
2022-04-11T00:28:00+09:00,0.6,���k��,1.2,���k��,14.1,66.9,0,0,0,0
2022-04-11T00:29:00+09:00,0.7,�k��,1.2,���k��,14.1,66.7,0,0,0,0
2022-04-11T00:30:00+09:00,0.7,�k��,1.2,���k��,14.1,66.9,0,0,0,0
2022-04-11T00:31:00+09:00,0.7,�k��,1.2,���k��,14.1,67,0,0,0,0
2022-04-11T00:32:00+09:00,0.6,�k��,1.2,���k��,14.1,67.3,0,0,0,0
2022-04-11T00:33:00+09:00,0.6,�k��,1.2,���k��,14,67.4,0,0,0,0
2022-04-11T00:34:00+09:00,0.5,�k��,1.1,���k��,14.1,67.5,0,0,0,0
2022-04-11T00:35:00+09:00,0.5,�k��,1,�k��,14.1,67.3,0,0,0,0
2022-04-11T00:36:00+09:00,0.5,���k��,1,�k��,14.1,67.1,0,0,0,0
2022-04-11T00:37:00+09:00,0.5,���k��,1,�k��,14.1,66.8,0,0,0,0
2022-04-11T00:38:00+09:00,0.5,���k��,1,�k��,14.2,66.6,0,0,0,0
2022-04-11T00:39:00+09:00,0.5,��,1,���쓌,14.2,66.3,0,0,0,0
2022-04-11T00:40:00+09:00,0.5,��,1.1,�쓌,14.2,66.1,0,0,0,0
2022-04-11T00:41:00+09:00,0.4,��,1.1,�쓌,14.2,65.6,0,0,0,0
2022-04-11T00:42:00+09:00,0.5,���쓌,1.1,�쓌,14.2,65.5,0,0,0,0
2022-04-11T00:43:00+09:00,0.5,���쓌,1.1,�쓌,14.1,65.2,0,0,0,0
2022-04-11T00:44:00+09:00,0.5,���쓌,1.1,�쓌,14,65.4,0,0,0,0
2022-04-11T00:45:00+09:00,0.6,���쓌,1.2,��,14,65.6,0,0,0,0
2022-04-11T00:46:00+09:00,0.6,���쓌,1.2,��,13.8,66.3,0,0,0,0
2022-04-11T00:47:00+09:00,0.6,�쓌,1.2,��,13.8,67.1,0,0,0,0
2022-04-11T00:48:00+09:00,0.6,�쓌,1.8,��쓌,13.8,67.3,0,0,0,0
2022-04-11T00:49:00+09:00,0.6,�쓌,1.8,��쓌,13.7,67.5,0,0,0,0
2022-04-11T00:50:00+09:00,0.7,��쓌,1.8,��쓌,13.6,67.9,0,0,0,0
2022-04-11T00:51:00+09:00,0.7,��쓌,1.8,��쓌,13.6,68.1,0,0,0,0
2022-04-11T00:52:00+09:00,0.7,��쓌,1.8,��쓌,13.5,68.5,0,0,0,0
2022-04-11T00:53:00+09:00,0.7,��,1.8,��쓌,13.5,68.8,0,0,0,0
2022-04-11T00:54:00+09:00,0.7,��,1.8,��쓌,13.6,68.8,0,0,0,0
2022-04-11T00:55:00+09:00,0.6,��,1.8,��쓌,13.6,68.6,0,0,0,0
2022-04-11T00:56:00+09:00,0.6,��,1.8,��쓌,13.7,69,0,0,0,0
2022-04-11T00:57:00+09:00,0.6,��,1.8,��쓌,13.7,68.7,0,0,0,0
2022-04-11T00:58:00+09:00,0.5,��쓌,1.4,��쓌,13.8,68.6,0,0,0,0
2022-04-11T00:59:00+09:00,0.5,��쓌,1.4,��쓌,13.9,68.2,0,0,0,0
2022-04-11T01:00:00+09:00,0.5,��쓌,1.3,��,13.9,67.9,0,0,0,0
2022-04-11T01:01:00+09:00,0.5,��쓌,1.3,��,13.9,67.9,0,0,0,0
2022-04-11T01:02:00+09:00,0.5,�쓌,1.3,��,13.9,67.7,0,0,0,0
2022-04-11T01:03:00+09:00,0.5,�쓌,0.9,��쓌,13.9,67.7,0,0,0,0
2022-04-11T01:04:00+09:00,0.4,�쓌,0.8,��,13.9,67.8,0,0,0,0
2022-04-11T01:05:00+09:00,0.4,�쓌,0.7,���쓌,13.9,67.8,0,0,0,0
2022-04-11T01:06:00+09:00,0.4,�쓌,0.7,���쓌,13.9,67.3,0,0,0,0
2022-04-11T01:07:00+09:00,0.4,�쓌,0.9,��쓌,13.8,67,0,0,0,0
2022-04-11T01:08:00+09:00,0.4,�쓌,0.9,��쓌,13.8,67.2,0,0,0,0
2022-04-11T01:09:00+09:00,0.4,�쓌,0.9,��쓌,13.8,67.3,0,0,0,0
2022-04-11T01:10:00+09:00,0.4,�쓌,0.9,��쓌,13.7,67.3,0,0,0,0
2022-04-11T01:11:00+09:00,0.3,�쓌,0.9,��쓌,13.7,67.6,0,0,0,0
2022-04-11T01:12:00+09:00,0.3,��쓌,0.9,��쓌,13.8,68,0,0,0,0
2022-04-11T01:13:00+09:00,0.3,��쓌,1.1,��쓌,13.8,68,0,0,0,0
2022-04-11T01:14:00+09:00,0.4,��쓌,1.2,��쓌,13.6,67.4,0,0,0,0
2022-04-11T01:15:00+09:00,0.5,��쓌,1.3,�쓌,13.6,68.1,0,0,0,0
2022-04-11T01:16:00+09:00,0.6,��쓌,1.5,��,13.7,67.7,0,0,0,0
2022-04-11T01:17:00+09:00,0.7,�쓌,1.6,���k��,13.7,67.6,0,0,0,0
2022-04-11T01:18:00+09:00,0.8,�쓌,1.6,���k��,13.7,67.6,0,0,0,0
2022-04-11T01:19:00+09:00,0.8,���쓌,1.8,���k��,13.7,67.1,0,0,0,0
2022-04-11T01:20:00+09:00,0.9,���쓌,1.8,���k��,13.8,66.8,0,0,0,0
2022-04-11T01:21:00+09:00,0.9,��,1.8,���k��,13.7,67.6,0,0,0,0
2022-04-11T01:22:00+09:00,1,��,1.8,���k��,13.6,68.5,0,0,0,0
2022-04-11T01:23:00+09:00,1,��,1.8,���k��,13.6,68.3,0,0,0,0
2022-04-11T01:24:00+09:00,1.1,���k��,1.8,���k��,13.6,68.4,0,0,0,0
2022-04-11T01:25:00+09:00,1.1,���k��,1.8,���k��,13.6,67.9,0,0,0,0
2022-04-11T01:26:00+09:00,1.1,���k��,1.8,���k��,13.6,67.4,0,0,0,0
2022-04-11T01:27:00+09:00,1,���k��,1.8,���k��,13.6,67.6,0,0,0,0
2022-04-11T01:28:00+09:00,1,���k��,1.8,���k��,13.7,67.7,0,0,0,0
2022-04-11T01:29:00+09:00,1,���k��,1.6,��,13.8,66.7,0,0,0,0
2022-04-11T01:30:00+09:00,0.9,��,1.6,��,13.7,66,0,0,0,0
2022-04-11T01:31:00+09:00,0.9,��,1.6,��,13.5,66.7,0,0,0,0
2022-04-11T01:32:00+09:00,1,��,1.6,��,13.5,66.9,0,0,0,0
2022-04-11T01:33:00+09:00,0.9,���쓌,1.6,��,13.5,66.6,0,0,0,0
2022-04-11T01:34:00+09:00,0.9,�쓌,1.8,��쐼,13.4,66.9,0,0,0,0
2022-04-11T01:35:00+09:00,0.9,�쓌,1.8,��쐼,13.2,67.5,0,0,0,0
2022-04-11T01:36:00+09:00,0.9,��쓌,1.8,��쐼,13.2,68,0,0,0,0
2022-04-11T01:37:00+09:00,0.9,��쓌,1.8,��쐼,13.1,68.3,0,0,0,0
2022-04-11T01:38:00+09:00,0.9,��,1.8,��쐼,13.1,68.6,0,0,0,0
2022-04-11T01:39:00+09:00,0.9,��,1.8,��쐼,13,68.8,0,0,0,0
2022-04-11T01:40:00+09:00,0.9,��,1.8,��쐼,13.1,69.1,0,0,0,0
2022-04-11T01:41:00+09:00,0.9,��쓌,1.8,��쐼,13.2,69.1,0,0,0,0
2022-04-11T01:42:00+09:00,0.9,��쓌,1.8,��쐼,13.3,68.7,0,0,0,0
2022-04-11T01:43:00+09:00,1,�쓌,1.8,��쐼,13.4,68.5,0,0,0,0
2022-04-11T01:44:00+09:00,1,�쓌,1.7,�k��,13.5,68.1,0,0,0,0
2022-04-11T01:45:00+09:00,1,���쓌,1.7,�k��,13.5,67.2,0,0,0,0
2022-04-11T01:46:00+09:00,1,���쓌,1.7,�k��,13.4,67.2,0,0,0,0
2022-04-11T01:47:00+09:00,1,��,1.7,�k��,13.5,67.6,0,0,0,0
2022-04-11T01:48:00+09:00,1,��,1.7,�k��,13.5,67.4,0,0,0,0
2022-04-11T01:49:00+09:00,1.1,��,1.7,�k��,13.6,66.9,0,0,0,0
2022-04-11T01:50:00+09:00,1.1,���k��,1.7,�k��,13.7,66,0,0,0,0
2022-04-11T01:51:00+09:00,1.1,��,1.7,�k��,13.6,65.6,0,0,0,0
2022-04-11T01:52:00+09:00,1,��,1.7,�k��,13.5,66,0,0,0,0
2022-04-11T01:53:00+09:00,1,��,1.7,�k��,13.6,66.1,0,0,0,0
2022-04-11T01:54:00+09:00,0.9,���쓌,1.6,��,13.6,65.6,0,0,0,0
2022-04-11T01:55:00+09:00,0.9,���쓌,1.6,��,13.8,65.4,0,0,0,0
2022-04-11T01:56:00+09:00,0.9,�쓌,1.6,��,13.6,65,0,0,0,0
2022-04-11T01:57:00+09:00,0.9,�쓌,1.6,��,13.5,65.2,0,0,0,0
2022-04-11T01:58:00+09:00,0.8,��쓌,1.6,��,13.6,64.9,0,0,0,0
2022-04-11T01:59:00+09:00,0.7,��쓌,1.6,��,13.5,64.8,0,0,0,0
2022-04-11T02:00:00+09:00,0.8,��쓌,1.6,�쓌,13.5,65,0,0,0,0
2022-04-11T02:01:00+09:00,0.8,��쓌,1.6,�쓌,13.8,64.4,0,0,0,0
2022-04-11T02:02:00+09:00,0.8,��쓌,1.6,�쓌,13.7,63.9,0,0,0,0
2022-04-11T02:03:00+09:00,0.9,��쓌,1.6,�쓌,13.6,63.8,0,0,0,0
2022-04-11T02:04:00+09:00,1,��쓌,1.8,�쓌,13.6,64,0,0,0,0
2022-04-11T02:05:00+09:00,1,�쓌,1.8,�쓌,13.6,64.7,0,0,0,0
2022-04-11T02:06:00+09:00,1,�쓌,1.8,�쓌,13.5,65.1,0,0,0,0
2022-04-11T02:07:00+09:00,1,�쓌,1.8,�쓌,13.5,65.5,0,0,0,0
2022-04-11T02:08:00+09:00,1,�쓌,1.8,�쓌,13.7,65,0,0,0,0
2022-04-11T02:09:00+09:00,1,�쓌,1.8,�쓌,13.9,64.6,0,0,0,0
2022-04-11T02:10:00+09:00,0.9,�쓌,1.8,�쓌,13.9,64.4,0,0,0,0
2022-04-11T02:11:00+09:00,0.8,���쓌,1.8,�쓌,13.7,64.6,0,0,0,0
2022-04-11T02:12:00+09:00,0.7,���쓌,1.8,�쓌,13.5,65.2,0,0,0,0
2022-04-11T02:13:00+09:00,0.7,���쓌,1.8,�쓌,13.7,66,0,0,0,0
2022-04-11T02:14:00+09:00,0.6,���쓌,1.4,���쓌,13.6,65.8,0,0,0,0
2022-04-11T02:15:00+09:00,0.5,���쓌,1.1,���쓌,13.4,65.9,0,0,0,0
2022-04-11T02:16:00+09:00,0.5,�쓌,1.4,��쓌,13.1,66.1,0,0,0,0
2022-04-11T02:17:00+09:00,0.5,�쓌,1.4,��쓌,13,66.8,0,0,0,0
2022-04-11T02:18:00+09:00,0.5,�쓌,1.4,��쓌,12.9,67.5,0,0,0,0
2022-04-11T02:19:00+09:00,0.5,�쓌,1.4,��쓌,12.8,67.8,0,0,0,0
2022-04-11T02:20:00+09:00,0.6,�쓌,1.5,�쓌,12.9,68.4,0,0,0,0
2022-04-11T02:21:00+09:00,0.7,��쓌,2,�쓌,13,68.4,0,0,0,0
2022-04-11T02:22:00+09:00,0.8,��쓌,2,�쓌,13.1,68.3,0,0,0,0
2022-04-11T02:23:00+09:00,0.8,��쓌,2,�쓌,13.2,68.4,0,0,0,0
2022-04-11T02:24:00+09:00,0.9,��쓌,2,�쓌,13.2,67.9,0,0,0,0
2022-04-11T02:25:00+09:00,0.9,�쓌,2,�쓌,13.2,67.7,0,0,0,0
2022-04-11T02:26:00+09:00,0.8,�쓌,2,�쓌,13.1,67.7,0,0,0,0
2022-04-11T02:27:00+09:00,0.8,�쓌,2,�쓌,13.1,68,0,0,0,0
2022-04-11T02:28:00+09:00,0.9,���쓌,2,�쓌,13.1,68.5,0,0,0,0
2022-04-11T02:29:00+09:00,0.9,���쓌,2,�쓌,13.1,68.8,0,0,0,0
2022-04-11T02:30:00+09:00,0.9,���쓌,2,�쓌,13.2,69,0,0,0,0
2022-04-11T02:31:00+09:00,0.8,��,1.8,�쓌,13.1,68.8,0,0,0,0
2022-04-11T02:32:00+09:00,0.7,��,1.3,���k��,13,68.7,0,0,0,0
2022-04-11T02:33:00+09:00,0.7,��,1.3,���k��,13.1,69.4,0,0,0,0
2022-04-11T02:34:00+09:00,0.7,��,1.4,���k��,13.2,69.9,0,0,0,0
2022-04-11T02:35:00+09:00,0.8,���k��,1.4,���k��,13.2,69.9,0,0,0,0
2022-04-11T02:36:00+09:00,0.8,���k��,1.4,���k��,13.2,69.5,0,0,0,0
2022-04-11T02:37:00+09:00,0.8,��,1.4,���k��,13.2,69.3,0,0,0,0
2022-04-11T02:38:00+09:00,0.8,��,1.4,���k��,13.1,69.1,0,0,0,0
2022-04-11T02:39:00+09:00,0.8,��,1.4,���k��,13,68.7,0,0,0,0
2022-04-11T02:40:00+09:00,0.7,���쓌,1.4,���k��,13,68.9,0,0,0,0
2022-04-11T02:41:00+09:00,0.7,���쓌,1.4,���k��,12.9,69.3,0,0,0,0
2022-04-11T02:42:00+09:00,0.7,���쓌,1.4,���k��,13.1,70,0,0,0,0
2022-04-11T02:43:00+09:00,0.7,�쓌,1.4,���k��,12.9,69.1,0,0,0,0
2022-04-11T02:44:00+09:00,0.7,�쓌,1.6,��쓌,12.6,68.8,0,0,0,0
2022-04-11T02:45:00+09:00,0.7,��쓌,1.6,��쓌,12.6,69.6,0,0,0,0
2022-04-11T02:46:00+09:00,0.7,��쓌,1.6,��쓌,12.4,69.6,0,0,0,0
2022-04-11T02:47:00+09:00,0.7,��,1.6,��쓌,12.4,69.9,0,0,0,0
2022-04-11T02:48:00+09:00,0.6,��,1.6,��쓌,12.4,70.4,0,0,0,0
2022-04-11T02:49:00+09:00,0.6,��,1.6,��쓌,12.6,70.9,0,0,0,0
2022-04-11T02:50:00+09:00,0.6,��,1.6,��쓌,12.5,70.4,0,0,0,0
2022-04-11T02:51:00+09:00,0.7,��,1.6,��쓌,12.4,69.8,0,0,0,0
2022-04-11T02:52:00+09:00,0.7,��,1.6,��쓌,12.4,70.3,0,0,0,0
2022-04-11T02:53:00+09:00,0.8,��,1.6,��쓌,12.4,70.5,0,0,0,0
2022-04-11T02:54:00+09:00,0.7,��,1.5,��쐼,12.5,70.9,0,0,0,0
2022-04-11T02:55:00+09:00,0.7,��쓌,1.5,��쐼,12.4,70.8,0,0,0,0
2022-04-11T02:56:00+09:00,0.7,��쓌,1.5,��쐼,12.5,71.4,0,0,0,0
2022-04-11T02:57:00+09:00,0.7,�쓌,1.5,��쐼,12.6,71.5,0,0,0,0
2022-04-11T02:58:00+09:00,0.7,�쓌,1.5,��쐼,12.6,71.3,0,0,0,0
2022-04-11T02:59:00+09:00,0.8,���쓌,1.7,���k��,12.7,72.1,0,0,0,0
2022-04-11T03:00:00+09:00,0.9,���쓌,1.8,���k��,12.6,72.1,0,0,0,0
2022-04-11T03:01:00+09:00,0.9,��,1.8,���k��,12.5,72.2,0,0,0,0
2022-04-11T03:02:00+09:00,1,��,1.8,���k��,12.5,72.9,0,0,0,0
2022-04-11T03:03:00+09:00,1,��,1.8,���k��,12.5,73.3,0,0,0,0
2022-04-11T03:04:00+09:00,1,���k��,1.8,���k��,12.5,73.6,0,0,0,0
2022-04-11T03:05:00+09:00,1,���k��,1.8,���k��,12.5,73.8,0,0,0,0
2022-04-11T03:06:00+09:00,1.1,���k��,1.8,���k��,12.5,74.4,0,0,0,0
2022-04-11T03:07:00+09:00,1.1,���k��,1.8,���k��,12.7,75.3,0,0,0,0
2022-04-11T03:08:00+09:00,1.1,���k��,2,���k��,12.8,75.1,0,0,0,0
2022-04-11T03:09:00+09:00,1.2,��,2.2,��,12.8,74.3,0,0,0,0
2022-04-11T03:10:00+09:00,1.2,��,2.2,��,12.7,73.9,0,0,0,0
2022-04-11T03:11:00+09:00,1.1,��,2.2,��,12.6,73.8,0,0,0,0
2022-04-11T03:12:00+09:00,1.1,��,2.2,��,12.5,74.1,0,0,0,0
2022-04-11T03:13:00+09:00,1.1,��,2.2,��,12.6,74.7,0,0,0,0
2022-04-11T03:14:00+09:00,1,��,2.2,��,12.4,73.6,0,0,0,0
2022-04-11T03:15:00+09:00,1,��,2.2,��,12.5,73.5,0,0,0,0
2022-04-11T03:16:00+09:00,1.1,��,2.2,��,12.6,74.8,0,0,0,0
2022-04-11T03:17:00+09:00,1.1,��,2.2,��,12.8,75.5,0,0,0,0
2022-04-11T03:18:00+09:00,1,���쓌,2.2,��,12.8,75.2,0,0,0,0
2022-04-11T03:19:00+09:00,1,���쓌,2.1,��,12.8,74.5,0,0,0,0
2022-04-11T03:20:00+09:00,0.9,���쓌,1.7,��,12.9,74.8,0,0,0,0
2022-04-11T03:21:00+09:00,0.9,���쓌,1.7,��,13,74.8,0,0,0,0
2022-04-11T03:22:00+09:00,0.9,���쓌,1.7,��,12.9,74.1,0,0,0,0
2022-04-11T03:23:00+09:00,0.9,���쓌,1.7,��,12.6,72.5,0,0,0,0
2022-04-11T03:24:00+09:00,0.8,���쓌,1.7,��,12.5,73,0,0,0,0
2022-04-11T03:25:00+09:00,0.8,�쓌,1.7,��,12.4,72.4,0,0,0,0
2022-04-11T03:26:00+09:00,0.7,�쓌,1.6,��,12.3,72.2,0,0,0,0
2022-04-11T03:27:00+09:00,0.7,��쓌,1.4,���쓌,12.7,75,0,0,0,0
2022-04-11T03:28:00+09:00,0.7,��쓌,1.4,���쓌,12.8,75.1,0,0,0,0
2022-04-11T03:29:00+09:00,0.7,�쓌,1.5,���쓌,12.8,75.4,0,0,0,0
2022-04-11T03:30:00+09:00,0.7,�쓌,1.5,���쓌,12.7,75.2,0,0,0,0
2022-04-11T03:31:00+09:00,0.7,�쓌,1.5,���쓌,12.7,75.2,0,0,0,0
2022-04-11T03:32:00+09:00,0.7,�쓌,1.5,���쓌,12.6,75,0,0,0,0
2022-04-11T03:33:00+09:00,0.7,���쓌,1.6,�k��,12.5,75,0,0,0,0
2022-04-11T03:34:00+09:00,0.8,���쓌,1.6,�k��,12.5,76.3,0,0,0,0
2022-04-11T03:35:00+09:00,0.8,��,1.6,�k��,12.4,76.9,0,0,0,0
2022-04-11T03:36:00+09:00,0.8,��,1.6,�k��,12.4,77.3,0,0,0,0
2022-04-11T03:37:00+09:00,0.8,��,1.6,�k��,12.5,77.5,0,0,0,0
2022-04-11T03:38:00+09:00,0.7,��,1.6,�k��,12.5,77.5,0,0,0,0
2022-04-11T03:39:00+09:00,0.7,��,1.6,�k��,12.3,76.2,0,0,0,0
2022-04-11T03:40:00+09:00,0.7,��,1.6,�k��,12.1,75.1,0,0,0,0
2022-04-11T03:41:00+09:00,0.7,��,1.6,�k��,12.1,75.6,0,0,0,0
2022-04-11T03:42:00+09:00,0.7,���쓌,1.6,�k��,12,75.8,0,0,0,0
2022-04-11T03:43:00+09:00,0.7,���쓌,1.4,���k��,12.2,77.3,0,0,0,0
2022-04-11T03:44:00+09:00,0.6,�쓌,1.3,��,12.2,77.3,0,0,0,0
2022-04-11T03:45:00+09:00,0.7,�쓌,1.3,��,12.5,78.7,0,0,0,0
2022-04-11T03:46:00+09:00,0.7,�쓌,1.3,��,12.6,78.9,0,0,0,0
2022-04-11T03:47:00+09:00,0.7,�쓌,1.3,��,12.6,78.3,0,0,0,0
2022-04-11T03:48:00+09:00,0.7,��쓌,1.4,��,12.6,78.2,0,0,0,0
2022-04-11T03:49:00+09:00,0.8,��쓌,1.8,��,12.1,74.7,0,0,0,0
2022-04-11T03:50:00+09:00,0.8,��쓌,1.9,��,11.8,74.2,0,0,0,0
2022-04-11T03:51:00+09:00,0.8,��쓌,1.9,��,11.8,75.4,0,0,0,0
2022-04-11T03:52:00+09:00,0.9,��쓌,1.9,��,12.3,78.8,0,0,0,0
2022-04-11T03:53:00+09:00,0.9,��쓌,1.9,��,12.2,78.6,0,0,0,0
2022-04-11T03:54:00+09:00,1,��쓌,1.9,��,11.9,76.2,0,0,0,0
2022-04-11T03:55:00+09:00,0.9,��쓌,1.9,��,11.7,76,0,0,0,0
2022-04-11T03:56:00+09:00,0.9,��쓌,1.9,��,11.7,76.4,0,0,0,0
2022-04-11T03:57:00+09:00,0.9,��,1.9,��,11.8,77.4,0,0,0,0
2022-04-11T03:58:00+09:00,0.9,��쓌,1.9,��,11.9,78.1,0,0,0,0
2022-04-11T03:59:00+09:00,0.9,��쓌,1.9,��,12,78.5,0,0,0,0
2022-04-11T04:00:00+09:00,0.8,��쓌,1.6,��쓌,12,78.3,0,0,0,0
2022-04-11T04:01:00+09:00,0.9,��쓌,1.6,��쓌,12.1,78.6,0,0,0,0
2022-04-11T04:02:00+09:00,0.9,�쓌,1.6,��쓌,12.1,78.5,0,0,0,0
2022-04-11T04:03:00+09:00,0.8,�쓌,1.5,��쓌,12.1,78.3,0,0,0,0
2022-04-11T04:04:00+09:00,0.8,���쓌,1.5,��쓌,12.1,78,0,0,0,0
2022-04-11T04:05:00+09:00,0.7,���쓌,1.4,��쓌,12.2,78.6,0,0,0,0
2022-04-11T04:06:00+09:00,0.7,���쓌,1.4,��쓌,12.4,80,0,0,0,0
2022-04-11T04:07:00+09:00,0.7,���쓌,1.3,��쓌,12.3,79.5,0,0,0,0
2022-04-11T04:08:00+09:00,0.7,���쓌,1.3,��쓌,12.1,77.8,0,0,0,0
2022-04-11T04:09:00+09:00,0.6,���쓌,1.1,��쓌,12.1,77.9,0,0,0,0
2022-04-11T04:10:00+09:00,0.7,���쓌,1.5,��,11.9,78.1,0,0,0,0
2022-04-11T04:11:00+09:00,0.7,���쓌,1.7,��쐼,11.9,78.5,0,0,0,0
2022-04-11T04:12:00+09:00,0.7,�쓌,1.7,��쐼,12.1,80.7,0,0,0,0
2022-04-11T04:13:00+09:00,0.6,�쓌,1.7,��쐼,12.4,81.8,0,0,0,0
2022-04-11T04:14:00+09:00,0.7,��쓌,1.7,��쐼,12.1,79.7,0,0,0,0
2022-04-11T04:15:00+09:00,0.7,��쓌,1.7,��쐼,12,79.2,0,0,0,0
2022-04-11T04:16:00+09:00,0.8,��쓌,1.7,��쐼,11.9,79.6,0,0,0,0
2022-04-11T04:17:00+09:00,0.8,��쓌,1.7,��쐼,11.9,79.5,0,0,0,0
2022-04-11T04:18:00+09:00,0.9,��쓌,2,��,11.8,79.4,0,0,0,0
2022-04-11T04:19:00+09:00,1,��쓌,2,��,11.9,79.8,0,0,0,0
2022-04-11T04:20:00+09:00,1,��쓌,2,��,12,80.3,0,0,0,0
2022-04-11T04:21:00+09:00,0.9,��쓌,2,��,12,80.2,0,0,0,0
2022-04-11T04:22:00+09:00,0.9,��쓌,2,��,12.2,80.7,0,0,0,0
2022-04-11T04:23:00+09:00,0.9,��쓌,2,��,12.3,80.4,0,0,0,0
2022-04-11T04:24:00+09:00,0.8,��쓌,2,��,12.1,79.1,0,0,0,0
2022-04-11T04:25:00+09:00,0.8,��쓌,2,��,12.2,79.5,0,0,0,0
2022-04-11T04:26:00+09:00,0.7,��쓌,2,��,12.1,79.3,0,0,0,0
2022-04-11T04:27:00+09:00,0.7,��쓌,2,��,12.1,79.5,0,0,0,0
2022-04-11T04:28:00+09:00,0.7,�쓌,1.8,��쓌,12.2,79.8,0,0,0,0
2022-04-11T04:29:00+09:00,0.5,�쓌,1.3,��쓌,12.4,79.5,0,0,0,0
2022-04-11T04:30:00+09:00,0.5,�쓌,1.2,��,12.3,79.2,0,0,0,0
2022-04-11T04:31:00+09:00,0.5,�쓌,1.1,�쓌,12.2,78.3,0,0,0,0
2022-04-11T04:32:00+09:00,0.5,���쓌,1.1,�쓌,12.1,78.6,0,0,0,0
2022-04-11T04:33:00+09:00,0.5,���쓌,1.1,�쓌,12.1,79,0,0,0,0
2022-04-11T04:34:00+09:00,0.5,�쓌,1.1,�쓌,12.1,79.2,0,0,0,0
2022-04-11T04:35:00+09:00,0.5,�쓌,1.4,��,12.1,80.1,0,0,0,0
2022-04-11T04:36:00+09:00,0.5,�쓌,1.5,��쓌,12,80.8,0,0,0,0
2022-04-11T04:37:00+09:00,0.6,�쓌,1.5,��쓌,12,81.5,0,0,0,0
2022-04-11T04:38:00+09:00,0.6,�쓌,1.6,���쓌,12.1,83,0,0,0,0
2022-04-11T04:39:00+09:00,0.7,�쓌,1.6,���쓌,12,81.9,0,0,0,0
2022-04-11T04:40:00+09:00,0.7,��쓌,1.6,���쓌,12.1,82.7,0,0,0,0
2022-04-11T04:41:00+09:00,0.8,��쓌,1.6,���쓌,12.4,84.3,0,0,0,0
2022-04-11T04:42:00+09:00,0.8,��쓌,1.6,���쓌,12.4,83.7,0,0,0,0
2022-04-11T04:43:00+09:00,0.9,�쓌,1.6,���쓌,12.2,81.9,0,0,0,0
2022-04-11T04:44:00+09:00,0.9,�쓌,1.6,���쓌,12,81,0,0,0,0
2022-04-11T04:45:00+09:00,0.9,���쓌,1.6,���쓌,11.8,80.9,0,0,0,0
2022-04-11T04:46:00+09:00,0.9,���쓌,1.6,���쓌,11.8,82,0,0,0,0
2022-04-11T04:47:00+09:00,0.8,��,1.6,���쓌,11.9,83.3,0,0,0,0
2022-04-11T04:48:00+09:00,0.7,��,1.5,���k��,11.8,83.1,0,0,0,0
2022-04-11T04:49:00+09:00,0.7,��,1.5,���k��,11.9,84.1,0,0,0,0
2022-04-11T04:50:00+09:00,0.7,���k��,1.5,���k��,11.9,84.8,0,0,0,0
2022-04-11T04:51:00+09:00,0.7,���k��,1.5,���k��,12,85.2,0,0,0,0
2022-04-11T04:52:00+09:00,0.7,���k��,1.5,���k��,12.1,85.8,0,0,0,0
2022-04-11T04:53:00+09:00,0.8,���k��,1.8,���k��,12.2,86.8,0,0,0,0
2022-04-11T04:54:00+09:00,0.8,���k��,1.9,���k��,12.1,86.4,0,0,0,0
2022-04-11T04:55:00+09:00,0.8,���k��,1.9,���k��,12.2,87.3,0,0,0,0
2022-04-11T04:56:00+09:00,0.8,���k��,1.9,���k��,12,86,0,0,0,0
2022-04-11T04:57:00+09:00,0.9,���k��,1.9,���k��,11.9,85.6,0,0,0,0
2022-04-11T04:58:00+09:00,0.9,���k��,1.9,���k��,12,86.3,0,0,0,0
2022-04-11T04:59:00+09:00,0.9,���k��,1.9,���k��,12,87.1,0,0,0,0
2022-04-11T05:00:00+09:00,0.8,���k��,1.9,���k��,12,87.3,0,0,0,0
2022-04-11T05:01:00+09:00,0.7,���k��,1.9,���k��,12,87,0,0,0,0
2022-04-11T05:02:00+09:00,0.7,���k��,1.9,���k��,12.3,88.9,0,0,0,0
2022-04-11T05:03:00+09:00,0.7,���k��,1.9,���k��,12.1,87.7,0,0,0,0
2022-04-11T05:04:00+09:00,0.6,���k��,1.5,�k��,12,87.3,0,0,0,0
2022-04-11T05:05:00+09:00,0.6,���k��,1.8,�k��,12.1,87.8,0,0,0,0
2022-04-11T05:06:00+09:00,0.7,���k��,2.2,���k��,12.3,89.2,0,0,0,0
2022-04-11T05:07:00+09:00,0.7,���k��,2.2,���k��,12.5,89.7,0,0,0,0
2022-04-11T05:08:00+09:00,0.7,���k��,2.2,���k��,12.5,89.6,0,0,0,0
2022-04-11T05:09:00+09:00,0.7,���k��,2.2,���k��,12.4,88.8,0,0,0,0
2022-04-11T05:10:00+09:00,0.8,���k��,2.2,���k��,12.3,87.7,0,0,0,0
2022-04-11T05:11:00+09:00,0.8,���k��,2.2,���k��,12.3,88.2,0,0,0,0
2022-04-11T05:12:00+09:00,0.8,��,2.2,���k��,12.1,87.1,0,0,0,0
2022-04-11T05:13:00+09:00,0.8,��,2.2,���k��,11.9,85.8,0,0,0,0
2022-04-11T05:14:00+09:00,0.7,���쓌,2.2,���k��,12,86.6,0,0,0,0
2022-04-11T05:15:00+09:00,0.7,���쓌,2.2,���k��,12.4,89.2,0,0,0,0
2022-04-11T05:16:00+09:00,0.6,�쓌,1.7,�k�k��,12.3,88.7,0,0,0,0
2022-04-11T05:17:00+09:00,0.5,�쓌,1.6,��,12,86.8,0,0,0,0
2022-04-11T05:18:00+09:00,0.6,��쓌,1.7,��쓌,12.2,87.3,0,0,0,0
2022-04-11T05:19:00+09:00,0.6,��쓌,1.7,��쓌,12.5,89.1,0,0,0,0
2022-04-11T05:20:00+09:00,0.6,��쓌,1.7,��쓌,12.6,89.5,0,0,0,0
2022-04-11T05:21:00+09:00,0.6,��쓌,1.7,��쓌,12.4,87.9,0,0,0,0
2022-04-11T05:22:00+09:00,0.6,��쓌,1.7,��쓌,12.2,86.7,0,0,0,0
2022-04-11T05:23:00+09:00,0.6,��쓌,1.7,��쓌,12.1,86.4,0,0,0,0
2022-04-11T05:24:00+09:00,0.6,��쓌,1.7,��쓌,12,86.1,0,0,0,0
2022-04-11T05:25:00+09:00,0.7,��쓌,1.7,��쓌,12,86.4,0,0,0,0
2022-04-11T05:26:00+09:00,0.7,��쓌,1.7,��쓌,12.3,87.8,0,0,0,0
2022-04-11T05:27:00+09:00,0.7,��쓌,1.7,��쓌,12.6,89.7,0,0,0,0
2022-04-11T05:28:00+09:00,0.7,��쓌,1.8,��,12.2,87.4,0,0,0,0
2022-04-11T05:29:00+09:00,0.8,��쓌,1.8,��,12,86.5,0,0,0,0
2022-04-11T05:30:00+09:00,0.8,��쓌,1.8,��,12.1,87,0,0,0,0
2022-04-11T05:31:00+09:00,0.8,��쓌,1.8,��,12.3,88.8,0,0,0,0
2022-04-11T05:32:00+09:00,0.8,��쓌,1.8,��,12.2,88.4,0,0,0,0
2022-04-11T05:33:00+09:00,0.8,��쓌,1.8,��,12.1,87.6,0,0,0,0
2022-04-11T05:34:00+09:00,0.8,��쓌,1.8,��,12,87.5,0,0,0,0
2022-04-11T05:35:00+09:00,0.8,��쓌,1.8,��,11.9,87.3,0,0,0,0
2022-04-11T05:36:00+09:00,0.9,��쓌,2,��쓌,12.2,89.1,0,0,0,0
2022-04-11T05:37:00+09:00,0.9,��쓌,2.2,��,12,88.2,0,0,0,0
2022-04-11T05:38:00+09:00,0.9,��,2.2,��,12,88.3,0,0,0,0
2022-04-11T05:39:00+09:00,0.9,��쓌,2.2,��,12.3,90,0,0,0,0
2022-04-11T05:40:00+09:00,0.8,��쓌,2.2,��,12.3,89.1,0,0,0,0
2022-04-11T05:41:00+09:00,0.8,��쓌,2.2,��,12.4,89.4,0,0,0,0
2022-04-11T05:42:00+09:00,0.8,��쓌,2.2,��,12.4,89,0,0,0,0
2022-04-11T05:43:00+09:00,0.7,��쓌,2.2,��,12.5,89.1,0,0,0,0
2022-04-11T05:44:00+09:00,0.6,��쓌,2.2,��,12.4,88.7,0,0,0,0
2022-04-11T05:45:00+09:00,0.6,��쓌,2.2,��,12.2,87.4,0,0,0,0
2022-04-11T05:46:00+09:00,0.6,��쓌,2.2,��,12.2,87.1,0,0,0,0
2022-04-11T05:47:00+09:00,0.6,��쓌,2.1,��쓌,12.5,88.8,0,0,0,0
2022-04-11T05:48:00+09:00,0.5,�쓌,1.3,�쓌,12.5,88.9,0,0,0,0
2022-04-11T05:49:00+09:00,0.5,�쓌,1.3,�쓌,12.5,89,0,0,0,0
2022-04-11T05:50:00+09:00,0.6,�쓌,1.3,�쓌,12.6,89.1,0,0,0,0
2022-04-11T05:51:00+09:00,0.6,�쓌,1.3,�쓌,12.5,88.6,0,0,0,0
2022-04-11T05:52:00+09:00,0.6,�쓌,1.3,�쓌,12.5,88.3,0,0,0,0
2022-04-11T05:53:00+09:00,0.7,���쓌,1.3,�쓌,12.6,88.8,0,0,0,0
2022-04-11T05:54:00+09:00,0.7,���쓌,1.3,�쓌,12.7,89,0,0,0,0
2022-04-11T05:55:00+09:00,0.6,���쓌,1.3,�쓌,12.6,88.7,0,0,0,0
2022-04-11T05:56:00+09:00,0.6,���쓌,1.3,�쓌,12.6,88.5,0,0,0,0
2022-04-11T05:57:00+09:00,0.5,���쓌,1.4,��쓌,12.4,87.9,0,0,0,0
2022-04-11T05:58:00+09:00,0.5,���쓌,1.4,��쓌,12.2,86.8,0,0,0,0
2022-04-11T05:59:00+09:00,0.5,���쓌,1.4,��쓌,12.3,87.7,0,0,0,0
2022-04-11T06:00:00+09:00,0.5,���쓌,1.4,��쓌,12.4,88.6,0,0,0,0
2022-04-11T06:01:00+09:00,0.5,���쓌,1.4,��쓌,12.6,89.7,0,0,0,0
2022-04-11T06:02:00+09:00,0.5,���쓌,1.4,��쓌,12.7,90.1,0,0,0,0
2022-04-11T06:03:00+09:00,0.5,���쓌,1.4,��쓌,12.7,89.7,0,0,0,0
2022-04-11T06:04:00+09:00,0.5,�쓌,1.4,��쓌,12.6,89.4,0,0,0,0
2022-04-11T06:05:00+09:00,0.5,�쓌,1.4,��쓌,12.6,89.8,0,0,0,0
2022-04-11T06:06:00+09:00,0.6,�쓌,1.4,��쓌,12.3,87.9,0,0,0,0
2022-04-11T06:07:00+09:00,0.6,�쓌,1.9,��,12.5,88.8,0,0,0,0
2022-04-11T06:08:00+09:00,0.7,�쓌,1.9,��,12.4,88.7,0,0,0,0
2022-04-11T06:09:00+09:00,0.7,��쓌,1.9,��,12.5,89.4,0,0,0,0
2022-04-11T06:10:00+09:00,0.8,��쓌,1.9,��,12.6,89.7,0,0,0,0
2022-04-11T06:11:00+09:00,0.8,��쓌,1.9,��,12.7,90.7,0,0,0,0
2022-04-11T06:12:00+09:00,0.9,��,1.9,��,12.5,89.2,0,0,0,0
2022-04-11T06:13:00+09:00,1,��,1.9,��,12.5,88.8,0,0,0,0
2022-04-11T06:14:00+09:00,1,��,1.9,��,12.5,89.1,0,0,0,0
2022-04-11T06:15:00+09:00,1,��,1.9,��,12.5,89.2,0,0,0,0
2022-04-11T06:16:00+09:00,1,��,1.9,��,12.8,90.6,0,0,0,0
2022-04-11T06:17:00+09:00,0.9,��쓌,1.7,��,13,90.6,0,0,0,0
2022-04-11T06:18:00+09:00,0.8,��,1.7,��,13.1,89.9,0,0,0,0
2022-04-11T06:19:00+09:00,0.8,��,1.7,��,12.8,88.4,0,0,0,0
2022-04-11T06:20:00+09:00,0.8,��,1.7,��,12.7,87.2,0,0,0,0
2022-04-11T06:21:00+09:00,0.8,��,1.7,��,12.7,87.6,0,0,0,0
2022-04-11T06:22:00+09:00,0.8,��쓌,1.7,��,13,89.3,0,0,0,0
2022-04-11T06:23:00+09:00,0.7,��쓌,1.7,��,13,88.9,0,0,0,0
2022-04-11T06:24:00+09:00,0.6,��쓌,1.6,��,13.2,89.7,0,0,0,0
2022-04-11T06:25:00+09:00,0.6,�쓌,1.5,��,13.1,89.4,0,0,0,0
2022-04-11T06:26:00+09:00,0.6,�쓌,1.5,��,13.1,88.3,0,0,0,0
2022-04-11T06:27:00+09:00,0.6,�쓌,1.5,��,13.1,88,0,0,0,0
2022-04-11T06:28:00+09:00,0.6,�쓌,1.5,��,13,87.3,0,0,0,0
2022-04-11T06:29:00+09:00,0.5,�쓌,1.5,��,12.9,86.2,0,0,0,0
2022-04-11T06:30:00+09:00,0.5,�쓌,1.4,��쐼,12.9,86.8,0,0,0,0
2022-04-11T06:31:00+09:00,0.5,�쓌,1.4,��쐼,13.1,87.5,0,0,0,0
2022-04-11T06:32:00+09:00,0.5,�쓌,1.4,��쐼,13.2,87.6,0,0,0,0
2022-04-11T06:33:00+09:00,0.5,�쓌,1.4,��쐼,13.2,87.5,0,0,0,0
2022-04-11T06:34:00+09:00,0.6,�쓌,1.4,��쐼,13.4,88.4,0,0,0,0
2022-04-11T06:35:00+09:00,0.6,�쓌,1.4,��쐼,13.8,90.1,0,0,0,0
2022-04-11T06:36:00+09:00,0.6,�쓌,1.4,��쐼,13.9,89.8,0,0,0,0
2022-04-11T06:37:00+09:00,0.7,�쓌,1.4,��쐼,13.2,85.7,0,0,0,0
2022-04-11T06:38:00+09:00,0.7,�쓌,1.5,��,13.1,85.6,0,0,0,0
2022-04-11T06:39:00+09:00,0.8,�쓌,1.5,��,13.2,86.6,0,0,0,0
2022-04-11T06:40:00+09:00,0.8,�쓌,1.5,��,13.1,86.3,0,0,0,0